Cosmos 1508 Rocket - Orbit

View from above orbital plane
View from above orbital plane
View from above satellite
View from above satellite

Ground track
Ground track

The orbit data is extracted from the following two-line orbital elements,

1 14484U 83111B   13170.00632104  .00027408  00000-0  60574-3 0  2408
2 14484 082.8362 313.1965 0298826 110.3358 253.0773 15.08251128517447
Epoch (UTC): 19 June 2013 00:09:06
Eccentricity: 0.0298826
inclination: 82.8362°
perigee height: 335 km
apogee height: 748 km
right ascension of ascending node: 313.1965°
argument of perigee: 110.3358°
revolutions per day: 15.08251128
mean anomaly at epoch: 253.0773°
orbit number at epoch: 51744

The dashed part of the orbit path shows where the satellite is in the earth's shadow,  

Developed and maintained by Chris Peat, Heavens-Above GmbH. Please read the updated FAQ before sending e-mail. Imprint. DLR